,,,PA_Meas_PMT16A,,PR_Meas_QMR101_102,,RH_Meas_QMH101,,SR_Meas_QMS101,,TA_Meas_QMH101,,GenWind,,GenWind,
date,time,status,PA,status,PR,status,RH,status,SR,status,TA,status,DirAvg,status,SpdAvg,
2010-03-13, 00:00:04,VALID,1013.06,VALID,0,VALID,99.4474,VALID,0,VALID,25.5261,VALID,75,VALID,0,
2010-03-13, 00:01:04,VALID,1013.04,VALID,0,VALID,99.4551,VALID,0,VALID,25.5261,VALID,76,VALID,0,
2010-03-13, 00:02:04,VALID,1013.08,VALID,0,VALID,99.4246,VALID,0,VALID,25.5261,VALID,76,VALID,0,
2010-03-13, 00:03:04,VALID,1013.06,VALID,0,VALID,99.4551,VALID,0,VALID,25.5261,VALID,70,VALID,0.0117188,
2010-03-13, 00:04:04,VALID,1013.04,VALID,0,VALID,99.4551,VALID,0,VALID,25.5261,VALID,68,VALID,0,
2010-03-13, 00:05:04,VALID,1013.05,VALID,0,VALID,99.4627,VALID,0,VALID,25.5047,VALID,68,VALID,0,
2010-03-13, 00:06:04,VALID,1013.03,VALID,0,VALID,99.4627,VALID,0,VALID,25.5261,VALID,68,VALID,0,
2010-03-13, 00:07:04,VALID,1012.98,VALID,0,VALID,99.4627,VALID,0,VALID,25.5456,VALID,60,VALID,0.00078125,
2010-03-13, 00:08:04,VALID,1012.97,VALID,0,VALID,99.4474,VALID,0,VALID,25.5261,VALID,308,VALID,0,
2010-03-13, 00:09:04,VALID,1012.91,VALID,0,VALID,99.4246,VALID,0,VALID,25.5261,VALID,308,VALID,0.0839844,
2010-03-13, 00:10:04,VALID,1012.88,VALID,0,VALID,99.4017,VALID,0,VALID,25.5261,VALID,308,VALID,0.0789063,
2010-03-13, 00:11:04,VALID,1012.86,VALID,0,VALID,99.3864,VALID,0,VALID,25.5047,VALID,308,VALID,0,
2010-03-13, 00:12:04,VALID,1012.81,VALID,0,VALID,99.3788,VALID,0,VALID,25.5261,VALID,308,VALID,0.0636719,
2010-03-13, 00:13:04,VALID,1012.79,VALID,0,VALID,99.3941,VALID,0,VALID,25.5261,VALID,308,VALID,0,
2010-03-13, 00:14:04,VALID,1012.77,VALID,0,VALID,99.3636,VALID,0,VALID,25.5047,VALID,308,VALID,0,
2010-03-13, 00:15:04,VALID,1012.76,VALID,0,VALID,99.3636,VALID,0,VALID,25.5047,VALID,308,VALID,0,
2010-03-13, 00:16:05,VALID,1012.74,VALID,0,VALID,99.3636,VALID,0.105969,VALID,25.4871,VALID,308,VALID,0.190625,
2010-03-13, 00:17:05,VALID,1012.73,VALID,0,VALID,99.3636,VALID,0,VALID,25.4657,VALID,308,VALID,0,
2010-03-13, 00:18:05,VALID,1012.72,VALID,0,VALID,99.3712,VALID,0,VALID,25.4462,VALID,308,VALID,0,
2010-03-13, 00:19:05,VALID,1012.71,VALID,0,VALID,99.3712,VALID,0,VALID,25.4462,VALID,308,VALID,0.0613281,
2010-03-13, 00:20:05,VALID,1012.67,VALID,0,VALID,99.4169,VALID,0,VALID,25.4267,VALID,308,VALID,0.0523437,
2010-03-13, 00:21:05,VALID,1012.68,VALID,0,VALID,99.4093,VALID,0,VALID,25.4072,VALID,308,VALID,0.00195313,
2010-03-13, 00:22:05,VALID,1012.64,VALID,0,VALID,99.4322,VALID,0.105969,VALID,25.4092,VALID,308,VALID,0,
2010-03-13, 00:23:05,VALID,1012.6,VALID,0,VALID,99.4398,VALID,0,VALID,25.3683,VALID,308,VALID,0,
2010-03-13, 00:24:05,VALID,1012.54,VALID,0,VALID,99.478,VALID,0,VALID,25.3488,VALID,308,VALID,0,
2010-03-13, 00:25:05,VALID,1012.52,VALID,0,VALID,99.4856,VALID,0.105969,VALID,25.3293,VALID,308,VALID,0,
2010-03-13, 00:26:05,VALID,1012.46,VALID,0,VALID,99.5085,VALID,0,VALID,25.3098,VALID,308,VALID,0.0121094,
2010-03-13, 00:27:05,VALID,1012.45,VALID,0,VALID,99.5161,VALID,0.105969,VALID,25.3312,VALID,308,VALID,0,
2010-03-13, 00:28:05,VALID,1012.43,VALID,0,VALID,99.5313,VALID,0,VALID,25.3117,VALID,308,VALID,0,
2010-03-13, 00:29:05,VALID,1012.4,VALID,0,VALID,99.5618,VALID,0,VALID,25.2922,VALID,308,VALID,0,
2010-03-13, 00:30:05,VALID,1012.39,VALID,0,VALID,99.5923,VALID,0,VALID,25.2727,VALID,308,VALID,0,
2010-03-13, 00:31:05,VALID,1012.39,VALID,0,VALID,99.5847,VALID,0,VALID,25.2337,VALID,308,VALID,0,
2010-03-13, 00:32:05,VALID,1012.37,VALID,0,VALID,99.6228,VALID,0.105969,VALID,25.2318,VALID,308,VALID,0,
2010-03-13, 00:33:05,VALID,1012.37,VALID,0,VALID,99.6228,VALID,0.105969,VALID,25.2123,VALID,308,VALID,0,
2010-03-13, 00:34:05,VALID,1012.38,VALID,0,VALID,99.6533,VALID,0,VALID,25.1928,VALID,308,VALID,0,
2010-03-13, 00:35:05,VALID,1012.35,VALID,0,VALID,99.6533,VALID,0.105969,VALID,25.1947,VALID,308,VALID,0,
2010-03-13, 00:36:05,VALID,1012.32,VALID,0,VALID,99.6533,VALID,0,VALID,25.2142,VALID,308,VALID,0,
2010-03-13, 00:37:05,VALID,1012.31,VALID,0,VALID,99.6838,VALID,0,VALID,25.1538,VALID,308,VALID,0,
2010-03-13, 00:38:05,VALID,1012.29,VALID,0,VALID,99.7067,VALID,0,VALID,25.1752,VALID,54,VALID,0,
2010-03-13, 00:39:05,VALID,1012.25,VALID,0,VALID,99.6991,VALID,0,VALID,25.1752,VALID,67,VALID,0.426953,
2010-03-13, 00:40:05,VALID,1012.23,VALID,0,VALID,99.7144,VALID,0,VALID,25.1538,VALID,77,VALID,0.353125,
2010-03-13, 00:41:05,VALID,1012.2,VALID,0,VALID,99.7296,VALID,0,VALID,25.1538,VALID,81,VALID,0.267969,
2010-03-13, 00:42:05,VALID,1012.15,VALID,0,VALID,99.7372,VALID,0.105969,VALID,25.1752,VALID,81,VALID,0.260156,
2010-03-13, 00:43:05,VALID,1012.14,VALID,0,VALID,99.7449,VALID,0.105969,VALID,25.1733,VALID,81,VALID,0.259375,
2010-03-13, 00:44:05,VALID,1012.1,VALID,0,VALID,99.7296,VALID,0,VALID,25.1947,VALID,81,VALID,0,
2010-03-13, 00:45:05,VALID,1012.12,VALID,0,VALID,99.7449,VALID,0,VALID,25.1538,VALID,81,VALID,0,
2010-03-13, 00:46:05,VALID,1012.08,VALID,0,VALID,99.7525,VALID,0,VALID,25.1733,VALID,81,VALID,0,
2010-03-13, 00:47:05,VALID,1012.06,VALID,0,VALID,99.7525,VALID,0.105969,VALID,25.1733,VALID,81,VALID,0,
2010-03-13, 00:48:05,VALID,1012.07,VALID,0,VALID,99.7677,VALID,0,VALID,25.1733,VALID,81,VALID,0,
2010-03-13, 00:49:05,VALID,1012.07,VALID,0,VALID,99.7449,VALID,0.105969,VALID,25.1733,VALID,81,VALID,0,
2010-03-13, 00:50:05,VALID,1012.06,VALID,0,VALID,99.7677,VALID,0.105969,VALID,25.1733,VALID,81,VALID,0,
2010-03-13, 00:51:05,VALID,1012.05,VALID,0,VALID,99.7525,VALID,0,VALID,25.1947,VALID,81,VALID,0,
2010-03-13, 00:52:05,VALID,1012.06,VALID,0,VALID,99.7601,VALID,0,VALID,25.1752,VALID,81,VALID,0,
2010-03-13, 00:53:05,VALID,1012.03,VALID,0,VALID,99.7677,VALID,0,VALID,25.1752,VALID,81,VALID,0,
2010-03-13, 00:54:05,VALID,1012.02,VALID,0,VALID,99.7677,VALID,0,VALID,25.1557,VALID,81,VALID,0,
2010-03-13, 00:55:05,VALID,1012.04,VALID,0,VALID,99.7525,VALID,0,VALID,25.1557,VALID,81,VALID,0,
2010-03-13, 00:56:05,VALID,1012.02,VALID,0,VALID,99.7449,VALID,0,VALID,25.1343,VALID,81,VALID,0,
2010-03-13, 00:57:05,VALID,1011.96,VALID,0,VALID,99.7525,VALID,0,VALID,25.1362,VALID,81,VALID,0,
2010-03-13, 00:58:05,VALID,1011.97,VALID,0,VALID,99.7601,VALID,0,VALID,25.1557,VALID,81,VALID,0,
2010-03-13, 00:59:05,VALID,1011.95,VALID,0,VALID,99.7677,VALID,0,VALID,25.1557,VALID,81,VALID,0,
2010-03-13, 01:00:05,VALID,1011.93,VALID,0,VALID,99.7449,VALID,0,VALID,25.1343,VALID,81,VALID,0,
2010-03-13, 01:01:05,VALID,1011.93,VALID,0,VALID,99.7754,VALID,0,VALID,25.1557,VALID,81,VALID,0,
2010-03-13, 01:02:05,VALID,1011.91,VALID,0,VALID,99.7525,VALID,0,VALID,25.1343,VALID,81,VALID,0,
2010-03-13, 01:03:05,VALID,1011.89,VALID,0,VALID,99.7601,VALID,0,VALID,25.1343,VALID,81,VALID,0,
2010-03-13, 01:04:05,VALID,1011.93,VALID,0,VALID,99.783,VALID,0.105969,VALID,25.1343,VALID,81,VALID,0,
2010-03-13, 01:05:05,VALID,1011.94,VALID,0,VALID,99.783,VALID,0.105969,VALID,25.1343,VALID,81,VALID,0,
2010-03-13, 01:06:05,VALID,1011.92,VALID,0,VALID,99.7601,VALID,0,VALID,25.1343,VALID,81,VALID,0,
2010-03-13, 01:07:05,VALID,1011.93,VALID,0,VALID,99.7677,VALID,0,VALID,25.1343,VALID,81,VALID,0,
2010-03-13, 01:08:05,VALID,1011.92,VALID,0,VALID,99.7677,VALID,0.105969,VALID,25.1343,VALID,81,VALID,0.266016,
2010-03-13, 01:09:05,VALID,1011.9,VALID,0,VALID,99.7906,VALID,0.105969,VALID,25.1343,VALID,81,VALID,0.287109,
2010-03-13, 01:10:05,VALID,1011.88,VALID,0,VALID,99.7754,VALID,0,VALID,25.0973,VALID,106,VALID,0.432031,
2010-03-13, 01:11:05,VALID,1011.87,VALID,0,VALID,99.7677,VALID,0,VALID,25.0759,VALID,106,VALID,0.373828,
2010-03-13, 01:12:05,VALID,1011.87,VALID,0,VALID,99.7754,VALID,0,VALID,25.1167,VALID,106,VALID,0.391016,
2010-03-13, 01:13:05,VALID,1011.86,VALID,0,VALID,99.7601,VALID,0,VALID,25.1148,VALID,106,VALID,0.216797,
2010-03-13, 01:14:05,VALID,1011.86,VALID,0,VALID,99.7754,VALID,0,VALID,25.1362,VALID,106,VALID,0.305078,
2010-03-13, 01:15:05,VALID,1011.84,VALID,0,VALID,99.7677,VALID,0,VALID,25.1362,VALID,106,VALID,0,
2010-03-13, 01:16:05,VALID,1011.85,VALID,0,VALID,99.7677,VALID,0,VALID,25.1343,VALID,106,VALID,0,
2010-03-13, 01:17:05,VALID,1011.86,VALID,0,VALID,99.783,VALID,0,VALID,25.1752,VALID,106,VALID,0,
2010-03-13, 01:18:05,VALID,1011.87,VALID,0,VALID,99.7525,VALID,0,VALID,25.1557,VALID,106,VALID,0,
2010-03-13, 01:19:05,VALID,1011.86,VALID,0,VALID,99.7754,VALID,0,VALID,25.1538,VALID,106,VALID,0,
2010-03-13, 01:20:05,VALID,1011.9,VALID,0,VALID,99.7601,VALID,0,VALID,25.1752,VALID,106,VALID,0,
2010-03-13, 01:21:05,VALID,1011.89,VALID,0,VALID,99.7677,VALID,0,VALID,25.1557,VALID,106,VALID,0,
2010-03-13, 01:22:05,VALID,1011.92,VALID,0,VALID,99.7601,VALID,0.105969,VALID,25.1752,VALID,106,VALID,0.0304688,
2010-03-13, 01:23:05,VALID,1011.92,VALID,0,VALID,99.7525,VALID,0.105969,VALID,25.1733,VALID,106,VALID,0,
2010-03-13, 01:24:05,VALID,1011.95,VALID,0,VALID,99.7449,VALID,0.105969,VALID,25.1928,VALID,106,VALID,0,
2010-03-13, 01:25:05,VALID,1011.95,VALID,0,VALID,99.7296,VALID,0.105969,VALID,25.2337,VALID,106,VALID,0,
2010-03-13, 01:26:05,VALID,1011.95,VALID,0,VALID,99.7296,VALID,0.105969,VALID,25.2318,VALID,106,VALID,0,
2010-03-13, 01:27:05,VALID,1011.96,VALID,0,VALID,99.7296,VALID,0.105969,VALID,25.2318,VALID,106,VALID,0,
2010-03-13, 01:28:05,VALID,1011.93,VALID,0,VALID,99.7525,VALID,0,VALID,25.2318,VALID,106,VALID,0,
2010-03-13, 01:29:05,VALID,1011.95,VALID,0,VALID,99.722,VALID,0,VALID,25.2532,VALID,106,VALID,0,
2010-03-13, 01:30:05,VALID,1011.96,VALID,0,VALID,99.7372,VALID,0.105969,VALID,25.2318,VALID,106,VALID,0,
2010-03-13, 01:31:05,VALID,1011.93,VALID,0,VALID,99.7449,VALID,0.105969,VALID,25.2318,VALID,106,VALID,0,
2010-03-13, 01:32:05,VALID,1011.92,VALID,0,VALID,99.7144,VALID,0.105969,VALID,25.2727,VALID,106,VALID,0,
2010-03-13, 01:33:05,VALID,1011.91,VALID,0,VALID,99.722,VALID,0.105969,VALID,25.2727,VALID,106,VALID,0,
2010-03-13, 01:34:05,VALID,1011.87,VALID,0,VALID,99.722,VALID,0.105969,VALID,25.2727,VALID,106,VALID,0,
2010-03-13, 01:35:05,VALID,1011.91,VALID,0,VALID,99.722,VALID,0,VALID,25.2903,VALID,106,VALID,0,
2010-03-13, 01:36:05,VALID,1011.92,VALID,0,VALID,99.7296,VALID,0.105969,VALID,25.3098,VALID,106,VALID,0,
2010-03-13, 01:37:05,VALID,1011.93,VALID,0,VALID,99.7067,VALID,0.105969,VALID,25.3098,VALID,149,VALID,0.194141,
2010-03-13, 01:38:05,VALID,1011.97,VALID,0,VALID,99.722,VALID,0.105969,VALID,25.3507,VALID,224,VALID,0.779688,
2010-03-13, 01:39:05,VALID,1011.98,VALID,0,VALID,99.6915,VALID,0,VALID,25.3897,VALID,234,VALID,0.545703,
2010-03-13, 01:40:05,VALID,1011.97,VALID,0,VALID,99.6533,VALID,0.105969,VALID,25.3877,VALID,258,VALID,0.113281,
2010-03-13, 01:41:05,VALID,1011.97,VALID,0,VALID,99.6076,VALID,0,VALID,25.4267,VALID,224,VALID,0.348047,
2010-03-13, 01:42:05,VALID,1011.94,VALID,0,VALID,99.5313,VALID,0.105969,VALID,25.4657,VALID,292,VALID,0.710156,
2010-03-13, 01:43:05,VALID,1011.9,VALID,0,VALID,99.5161,VALID,0.105969,VALID,25.4852,VALID,276,VALID,0.0648438,
2010-03-13, 01:44:05,VALID,1011.89,VALID,0,VALID,99.4169,VALID,0.105969,VALID,25.5261,VALID,306,VALID,0.558203,
2010-03-13, 01:45:05,VALID,1011.86,VALID,0,VALID,99.3407,VALID,0.105969,VALID,25.5261,VALID,318,VALID,0.624609,
2010-03-13, 01:46:05,VALID,1011.84,VALID,0,VALID,99.2034,VALID,0,VALID,25.5651,VALID,320,VALID,0.405469,
2010-03-13, 01:47:05,VALID,1011.79,VALID,0,VALID,99.0662,VALID,0,VALID,25.5651,VALID,313,VALID,0.275391,
2010-03-13, 01:48:05,VALID,1011.84,VALID,0,VALID,98.7993,VALID,0.105969,VALID,25.5827,VALID,273,VALID,0.524609,
2010-03-13, 01:49:05,VALID,1011.81,VALID,0,VALID,98.6391,VALID,0.105969,VALID,25.6022,VALID,273,VALID,0.0804688,
2010-03-13, 01:50:05,VALID,1011.81,VALID,0,VALID,98.6162,VALID,0.105969,VALID,25.6217,VALID,273,VALID,0,
2010-03-13, 01:51:05,VALID,1011.8,VALID,0,VALID,98.5552,VALID,0.105969,VALID,25.6607,VALID,273,VALID,0,
2010-03-13, 01:52:05,VALID,1011.84,VALID,0,VALID,98.4485,VALID,0.105969,VALID,25.6607,VALID,273,VALID,0,
2010-03-13, 01:53:05,VALID,1011.84,VALID,0,VALID,98.479,VALID,0.105969,VALID,25.6802,VALID,273,VALID,0,
2010-03-13, 01:54:05,VALID,1011.84,VALID,0,VALID,98.4637,VALID,0.105969,VALID,25.6802,VALID,273,VALID,0,
2010-03-13, 01:55:05,VALID,1011.83,VALID,0,VALID,98.4408,VALID,0.105969,VALID,25.6802,VALID,275,VALID,0.110937,
2010-03-13, 01:56:05,VALID,1011.8,VALID,0,VALID,98.4256,VALID,0,VALID,25.6821,VALID,292,VALID,0,
2010-03-13, 01:57:05,VALID,1011.77,VALID,0,VALID,98.4866,VALID,0,VALID,25.6607,VALID,345,VALID,0.65,
2010-03-13, 01:58:05,VALID,1011.75,VALID,0,VALID,98.4637,VALID,0,VALID,25.6626,VALID,356,VALID,0.364062,
2010-03-13, 01:59:05,VALID,1011.74,VALID,0,VALID,98.4408,VALID,0.105969,VALID,25.6217,VALID,356,VALID,0.288672,
2010-03-13, 02:00:05,VALID,1011.69,VALID,0,VALID,98.2578,VALID,0.105969,VALID,25.5827,VALID,329,VALID,0.638281,
2010-03-13, 02:01:05,VALID,1011.7,VALID,0,VALID,98.3798,VALID,0.105969,VALID,25.5827,VALID,337,VALID,0.203125,
2010-03-13, 02:02:05,VALID,1011.67,VALID,0,VALID,98.3112,VALID,0.105969,VALID,25.5846,VALID,334,VALID,0.245703,
2010-03-13, 02:03:05,VALID,1011.7,VALID,0,VALID,98.3646,VALID,0,VALID,25.5651,VALID,335,VALID,0.040625,
2010-03-13, 02:04:05,VALID,1011.67,VALID,0,VALID,98.3036,VALID,0,VALID,25.5651,VALID,335,VALID,0,
2010-03-13, 02:05:05,VALID,1011.66,VALID,0,VALID,98.4027,VALID,0,VALID,25.5437,VALID,335,VALID,0.0730469,
2010-03-13, 02:06:05,VALID,1011.61,VALID,0,VALID,98.357,VALID,0,VALID,25.5437,VALID,357,VALID,0.423828,
2010-03-13, 02:07:05,VALID,1011.55,VALID,0,VALID,98.3646,VALID,0.105969,VALID,25.5437,VALID,360,VALID,0.403125,
2010-03-13, 02:08:05,VALID,1011.54,VALID,0,VALID,98.5019,VALID,0.105969,VALID,25.5437,VALID,348,VALID,0.566797,
2010-03-13, 02:09:05,VALID,1011.48,VALID,0,VALID,98.54,VALID,0,VALID,25.5242,VALID,336,VALID,0.411328,
2010-03-13, 02:10:05,VALID,1011.45,VALID,0,VALID,98.5629,VALID,0.105969,VALID,25.5261,VALID,15,VALID,0.310937,
2010-03-13, 02:11:05,VALID,1011.47,VALID,0,VALID,98.5781,VALID,0.105969,VALID,25.4852,VALID,356,VALID,0.335938,
2010-03-13, 02:12:05,VALID,1011.46,VALID,0,VALID,98.6696,VALID,0.105969,VALID,25.4852,VALID,356,VALID,0,
2010-03-13, 02:13:05,VALID,1011.44,VALID,0,VALID,98.6925,VALID,0,VALID,25.4657,VALID,358,VALID,0,
2010-03-13, 02:14:05,VALID,1011.43,VALID,0,VALID,98.7611,VALID,0,VALID,25.4871,VALID,358,VALID,0,
2010-03-13, 02:15:05,VALID,1011.42,VALID,0,VALID,98.8526,VALID,0,VALID,25.4677,VALID,359,VALID,0,
2010-03-13, 02:16:05,VALID,1011.38,VALID,0,VALID,98.9213,VALID,0.105969,VALID,25.4482,VALID,359,VALID,0,
2010-03-13, 02:17:05,VALID,1011.36,VALID,0,VALID,98.9594,VALID,0,VALID,25.4482,VALID,359,VALID,0,
2010-03-13, 02:18:05,VALID,1011.36,VALID,0,VALID,99.028,VALID,0,VALID,25.4072,VALID,359,VALID,0,
2010-03-13, 02:19:05,VALID,1011.33,VALID,0,VALID,99.0509,VALID,0,VALID,25.4287,VALID,359,VALID,0,
2010-03-13, 02:20:05,VALID,1011.3,VALID,0,VALID,99.089,VALID,0,VALID,25.4072,VALID,359,VALID,0,
2010-03-13, 02:21:05,VALID,1011.31,VALID,0,VALID,99.0967,VALID,0,VALID,25.4287,VALID,359,VALID,0,
2010-03-13, 02:22:05,VALID,1011.29,VALID,0,VALID,99.1348,VALID,0,VALID,25.4092,VALID,359,VALID,0,
2010-03-13, 02:23:05,VALID,1011.31,VALID,0,VALID,99.1653,VALID,0,VALID,25.4092,VALID,359,VALID,0,
2010-03-13, 02:24:05,VALID,1011.3,VALID,0,VALID,99.15,VALID,0,VALID,25.3702,VALID,359,VALID,0,
2010-03-13, 02:25:05,VALID,1011.29,VALID,0,VALID,99.2187,VALID,0,VALID,25.3507,VALID,15,VALID,0,
2010-03-13, 02:26:05,VALID,1011.31,VALID,0,VALID,99.2797,VALID,0,VALID,25.3117,VALID,17,VALID,0.509375,
2010-03-13, 02:27:05,VALID,1011.32,VALID,0,VALID,99.3178,VALID,0,VALID,25.3117,VALID,62,VALID,0.601172,
2010-03-13, 02:28:05,VALID,1011.29,VALID,0,VALID,99.3788,VALID,0,VALID,25.2922,VALID,66,VALID,0.265625,
2010-03-13, 02:29:05,VALID,1011.29,VALID,0,VALID,99.4322,VALID,0,VALID,25.2922,VALID,66,VALID,0.262891,
2010-03-13, 02:30:05,VALID,1011.27,VALID,0,VALID,99.4703,VALID,0,VALID,25.2727,VALID,66,VALID,0.00585938,
2010-03-13, 02:31:05,VALID,1011.24,VALID,0,VALID,99.5085,VALID,0,VALID,25.2532,VALID,66,VALID,0,
2010-03-13, 02:32:05,VALID,1011.25,VALID,0,VALID,99.5313,VALID,0,VALID,25.2337,VALID,66,VALID,0,
2010-03-13, 02:33:05,VALID,1011.22,VALID,0,VALID,99.5542,VALID,0,VALID,25.2532,VALID,66,VALID,0,
2010-03-13, 02:34:05,VALID,1011.23,VALID,0,VALID,99.5847,VALID,0,VALID,25.2337,VALID,28,VALID,0.120312,
2010-03-13, 02:35:05,VALID,1011.25,VALID,0,VALID,99.6,VALID,0,VALID,25.2337,VALID,28,VALID,0,
2010-03-13, 02:36:05,VALID,1011.29,VALID,0,VALID,99.6228,VALID,0,VALID,25.2142,VALID,28,VALID,0,
2010-03-13, 02:37:05,VALID,1011.32,VALID,0,VALID,99.6228,VALID,0,VALID,25.1947,VALID,84,VALID,0.467187,
2010-03-13, 02:38:05,VALID,1011.35,VALID,0,VALID,99.6533,VALID,0,VALID,25.1947,VALID,84,VALID,0,
2010-03-13, 02:39:05,VALID,1011.36,VALID,0,VALID,99.6533,VALID,0.105969,VALID,25.1752,VALID,84,VALID,0.0351563,
2010-03-13, 02:40:05,VALID,1011.37,VALID,0,VALID,99.6533,VALID,0,VALID,25.1752,VALID,84,VALID,0.003125,
2010-03-13, 02:41:05,VALID,1011.36,VALID,0,VALID,99.6686,VALID,0,VALID,25.1557,VALID,84,VALID,0,
2010-03-13, 02:42:05,VALID,1011.4,VALID,0,VALID,99.661,VALID,0,VALID,25.1557,VALID,84,VALID,0,
2010-03-13, 02:43:05,VALID,1011.34,VALID,0,VALID,99.6686,VALID,0,VALID,25.1362,VALID,83,VALID,0.139844,
2010-03-13, 02:44:05,VALID,1011.33,VALID,0,VALID,99.6762,VALID,0,VALID,25.1362,VALID,83,VALID,0,
2010-03-13, 02:45:05,VALID,1011.31,VALID,0,VALID,99.6686,VALID,0,VALID,25.1167,VALID,83,VALID,0,
2010-03-13, 02:46:05,VALID,1011.27,VALID,0,VALID,99.6838,VALID,0,VALID,25.0954,VALID,83,VALID,0.185547,
2010-03-13, 02:47:05,VALID,1011.28,VALID,0,VALID,99.7067,VALID,0,VALID,25.0973,VALID,83,VALID,0,
2010-03-13, 02:48:05,VALID,1011.24,VALID,0,VALID,99.6991,VALID,0,VALID,25.0778,VALID,83,VALID,0,
2010-03-13, 02:49:05,VALID,1011.23,VALID,0,VALID,99.7067,VALID,0,VALID,25.0583,VALID,83,VALID,0,
2010-03-13, 02:50:05,VALID,1011.21,VALID,0,VALID,99.6991,VALID,0,VALID,25.0583,VALID,88,VALID,0,
2010-03-13, 02:51:05,VALID,1011.21,VALID,0,VALID,99.722,VALID,0,VALID,25.0583,VALID,88,VALID,0,
2010-03-13, 02:52:05,VALID,1011.17,VALID,0,VALID,99.7372,VALID,0,VALID,25.0388,VALID,88,VALID,0.28125,
2010-03-13, 02:53:05,VALID,1011.17,VALID,0,VALID,99.7449,VALID,0,VALID,25.0388,VALID,87,VALID,0.564062,
2010-03-13, 02:54:05,VALID,1011.17,VALID,0,VALID,99.7601,VALID,0,VALID,24.9998,VALID,82,VALID,0.454297,
2010-03-13, 02:55:05,VALID,1011.13,VALID,0,VALID,99.7525,VALID,0,VALID,24.9998,VALID,82,VALID,0.355469,
2010-03-13, 02:56:05,VALID,1011.13,VALID,0,VALID,99.7449,VALID,0,VALID,24.9803,VALID,79,VALID,0.338281,
2010-03-13, 02:57:05,VALID,1011.12,VALID,0,VALID,99.7372,VALID,0,VALID,24.9608,VALID,87,VALID,0.3875,
2010-03-13, 02:58:05,VALID,1011.14,VALID,0,VALID,99.7677,VALID,0,VALID,24.9608,VALID,87,VALID,0.30625,
2010-03-13, 02:59:05,VALID,1011.12,VALID,0,VALID,99.7449,VALID,0,VALID,24.9199,VALID,87,VALID,0.344141,
2010-03-13, 03:00:04,VALID,1011.12,VALID,0,VALID,99.7677,VALID,0,VALID,24.9413,VALID,87,VALID,0,
2010-03-13, 03:01:04,VALID,1011.11,VALID,0,VALID,99.7677,VALID,0,VALID,24.9413,VALID,87,VALID,0,
2010-03-13, 03:02:04,VALID,1011.1,VALID,0,VALID,99.7677,VALID,0,VALID,24.9004,VALID,87,VALID,0,
2010-03-13, 03:03:04,VALID,1011.1,VALID,0,VALID,99.7906,VALID,0,VALID,24.9218,VALID,87,VALID,0,
2010-03-13, 03:04:04,VALID,1011.09,VALID,0,VALID,99.8135,VALID,0,VALID,24.9023,VALID,87,VALID,0,
2010-03-13, 03:05:04,VALID,1011.07,VALID,0,VALID,99.8059,VALID,0,VALID,24.8809,VALID,87,VALID,0,
2010-03-13, 03:06:04,VALID,1011.06,VALID,0,VALID,99.8059,VALID,0,VALID,24.8828,VALID,86,VALID,0,
2010-03-13, 03:07:04,VALID,1011.06,VALID,0,VALID,99.8059,VALID,0,VALID,24.8828,VALID,83,VALID,0,
2010-03-13, 03:08:04,VALID,1011.05,VALID,0,VALID,99.8211,VALID,0,VALID,24.8615,VALID,83,VALID,0,
2010-03-13, 03:09:04,VALID,1011.05,VALID,0,VALID,99.8135,VALID,0,VALID,24.842,VALID,83,VALID,0,
2010-03-13, 03:10:04,VALID,1011.05,VALID,0,VALID,99.8211,VALID,0,VALID,24.8438,VALID,83,VALID,0,
2010-03-13, 03:11:04,VALID,1011.04,VALID,0,VALID,99.8364,VALID,0,VALID,24.842,VALID,83,VALID,0,
2010-03-13, 03:12:04,VALID,1011.05,VALID,0,VALID,99.844,VALID,0,VALID,24.8438,VALID,83,VALID,0,
2010-03-13, 03:13:04,VALID,1011.04,VALID,0,VALID,99.844,VALID,0,VALID,24.8244,VALID,83,VALID,0,
2010-03-13, 03:14:04,VALID,1011.07,VALID,0,VALID,99.8592,VALID,0,VALID,24.8244,VALID,83,VALID,0,
2010-03-13, 03:15:04,VALID,1011.06,VALID,0,VALID,99.8669,VALID,0,VALID,24.8049,VALID,83,VALID,0,
2010-03-13, 03:16:04,VALID,1011.1,VALID,0,VALID,99.8592,VALID,0,VALID,24.8049,VALID,83,VALID,0,
2010-03-13, 03:17:04,VALID,1011.12,VALID,0,VALID,99.8592,VALID,0,VALID,24.8049,VALID,83,VALID,0,
2010-03-13, 03:18:04,VALID,1011.08,VALID,0,VALID,99.8669,VALID,0,VALID,24.764,VALID,83,VALID,0,
2010-03-13, 03:19:04,VALID,1011.08,VALID,0,VALID,99.8592,VALID,0,VALID,24.7854,VALID,83,VALID,0,
2010-03-13, 03:20:04,VALID,1011.08,VALID,0,VALID,99.8821,VALID,0,VALID,24.8049,VALID,83,VALID,0,
2010-03-13, 03:21:04,VALID,1011.06,VALID,0,VALID,99.8974,VALID,0,VALID,24.7854,VALID,83,VALID,0,
2010-03-13, 03:22:04,VALID,1011.03,VALID,0,VALID,99.8745,VALID,0,VALID,24.7854,VALID,83,VALID,0,
2010-03-13, 03:23:04,VALID,1011.01,VALID,0,VALID,99.8745,VALID,0,VALID,24.764,VALID,83,VALID,0,
2010-03-13, 03:24:04,VALID,1011.02,VALID,0,VALID,99.905,VALID,0,VALID,24.7445,VALID,83,VALID,0,
2010-03-13, 03:25:04,VALID,1011,VALID,0,VALID,99.905,VALID,0,VALID,24.7659,VALID,83,VALID,0,
2010-03-13, 03:26:04,VALID,1011.03,VALID,0,VALID,99.8974,VALID,0,VALID,24.7659,VALID,83,VALID,0,
2010-03-13, 03:27:04,VALID,1011.06,VALID,0,VALID,99.9126,VALID,0,VALID,24.725,VALID,83,VALID,0,
2010-03-13, 03:28:04,VALID,1011.06,VALID,0,VALID,99.905,VALID,0,VALID,24.725,VALID,83,VALID,0,
2010-03-13, 03:29:04,VALID,1011.09,VALID,0,VALID,99.9126,VALID,0,VALID,24.7269,VALID,83,VALID,0,
2010-03-13, 03:30:04,VALID,1011.13,VALID,0,VALID,99.905,VALID,0,VALID,24.725,VALID,83,VALID,0,
2010-03-13, 03:31:04,VALID,1011.14,VALID,0,VALID,99.905,VALID,0,VALID,24.725,VALID,83,VALID,0,
2010-03-13, 03:32:04,VALID,1011.19,VALID,0,VALID,99.905,VALID,0,VALID,24.725,VALID,83,VALID,0,
2010-03-13, 03:33:04,VALID,1011.21,VALID,0,VALID,99.8897,VALID,0,VALID,24.7464,VALID,83,VALID,0,
2010-03-13, 03:34:04,VALID,1011.21,VALID,0,VALID,99.905,VALID,0,VALID,24.725,VALID,83,VALID,0,
2010-03-13, 03:35:04,VALID,1011.23,VALID,0,VALID,99.905,VALID,0,VALID,24.7055,VALID,83,VALID,0,
2010-03-13, 03:36:04,VALID,1011.23,VALID,0,VALID,99.8974,VALID,0,VALID,24.7464,VALID,83,VALID,0,
2010-03-13, 03:37:04,VALID,1011.25,VALID,0,VALID,99.8897,VALID,0,VALID,24.7659,VALID,92,VALID,0.454297,
2010-03-13, 03:38:04,VALID,1011.26,VALID,0,VALID,99.8821,VALID,0,VALID,24.7659,VALID,92,VALID,0.323828,
2010-03-13, 03:39:04,VALID,1011.23,VALID,0,VALID,99.8821,VALID,0,VALID,24.7659,VALID,92,VALID,0.221094,
2010-03-13, 03:40:04,VALID,1011.22,VALID,0,VALID,99.8974,VALID,0,VALID,24.764,VALID,92,VALID,0.184766,
2010-03-13, 03:41:04,VALID,1011.22,VALID,0,VALID,99.8745,VALID,0,VALID,24.7854,VALID,92,VALID,0.257813,
2010-03-13, 03:42:04,VALID,1011.23,VALID,0,VALID,99.8897,VALID,0,VALID,24.7854,VALID,89,VALID,0.273047,
2010-03-13, 03:43:04,VALID,1011.23,VALID,0,VALID,99.8897,VALID,0,VALID,24.8049,VALID,85,VALID,0,
2010-03-13, 03:44:04,VALID,1011.24,VALID,0,VALID,99.8897,VALID,0,VALID,24.764,VALID,67,VALID,0,
2010-03-13, 03:45:04,VALID,1011.22,VALID,0,VALID,99.9202,VALID,0,VALID,24.8049,VALID,67,VALID,0,
2010-03-13, 03:46:04,VALID,1011.23,VALID,0,VALID,99.9279,VALID,0,VALID,24.8049,VALID,67,VALID,0,
2010-03-13, 03:47:04,VALID,1011.26,VALID,0,VALID,99.9202,VALID,0,VALID,24.7854,VALID,67,VALID,0,
2010-03-13, 03:48:04,VALID,1011.29,VALID,0,VALID,99.9126,VALID,0,VALID,24.764,VALID,67,VALID,0,
2010-03-13, 03:49:04,VALID,1011.29,VALID,0,VALID,99.9126,VALID,0,VALID,24.764,VALID,67,VALID,0,
2010-03-13, 03:50:04,VALID,1011.26,VALID,0,VALID,99.9126,VALID,0,VALID,24.8049,VALID,68,VALID,0,
2010-03-13, 03:51:04,VALID,1011.3,VALID,0,VALID,99.8897,VALID,0,VALID,24.7854,VALID,99,VALID,0,
2010-03-13, 03:52:04,VALID,1011.27,VALID,0,VALID,99.8974,VALID,0,VALID,24.7854,VALID,89,VALID,0,